CZ-3A DEB, 35549

Orbit data source: Space-Track

CZ-3A DEB, 35549 is space debris in HEO originally from a launch on Fri, 02 Feb 2007 UTC launched from the Xichang Space Center, China (XSC). Debris objects in space refer to the collection of defunct objects orbiting the Earth. Examples of debris include non-operational satellites, rocket bodies, and fragments generated from explosions, collisions, or faulty payload assembly.

Loading next visibility...
Identifier
35549, 2007-003H
Orbit
HEO
Country
Flag of CNCN / PRC
Related business
Manufacturer
Unknown
Mission
Spacecraft
Bus & Motor
Unknown
Mass
Unknown
Launch date (UTC)
2007-02-02 (19 years ago)
Launch vehicle
Unknown
Launch site
Xichang Space Center, China (XSC)
Object type
Payload
Rocket body
Debris
Shape & HBR
Unknown shape, 0.3 m
Radar Cross Section
Medium (>0.1 m² and <1 m²)

Expand to show TLE details & history
Last TLE update: 3 days ago

TLE from 3 days ago
0 CZ-3A DEB
1 35549U 07003H   25288.97637272  .00047910  00000-0  14252-1 0  9990
2 35549  24.0655 327.0294 5261882 354.4000   1.5400  5.14911858159125
Epoch: 2025-10-15T23:25Z
TLE epoch observation values (Epoch: 2025-10-15T23:25:58.603Z)
Latitude
-0.00006°
Longitude
-49.20523°
Altitude
345.804 km
Speed
9.509 km/s
True Right ascension
21h 48m 07s
True Declination
0° 00' 00"
Sunlit
Object was in full shadow at epoch
Visualization orbit readout
Latitude
Unknown
Longitude
Unknown
Altitude
Unknown
Speed
Unknown
Apparent Right ascension
Unknown
Apparent Declination
Unknown
Sunlit
N/A
Visualization observer readout
Local Sidereal Time
10:38:01
Azimuth
Unknown
Elevation
Unknown
Doppler factor
Unknown
Orbital elements
Apogee altitude
15,247.618 km
Perigee altitude
335.673 km
Semi-major axis
14,169.783 km
Eccentricity
0.52619
Inclination
24.0655°
RAAN
327.0294°
Arg. of periapsis
354.4°
True anomaly
5.82639°
Mean anomaly
1.54°
Eccentric anomaly
3.2483°
Mean motion
1.28676 °/min
Orbital period
279.77 mins
BSTAR
0.014252
Loading maneuver chart data...
Computing Atmospheric mass density...
Loading historical data...
Loading historical data...
Loading historical data...
Loading historical data...
Loading historical data...
Loading historical data...
Loading historical data...

Documentation

Showing up to 5 results
|